Hagerstown, MD

4:09 AM EDT on October 17, 2017 (GMT -0400)
Hagerstown Regional-Henson

Weather History for KHGR - November, 2012

Change the Weather History Date:

Thursday, November 8, 2012

  Actual Average Record
Temperature  
Mean Temperature 42 °F 48 °F  
Max Temperature 51 °F 57 °F 69 °F (2001)
Min Temperature 32 °F 38 °F 26 °F (2007)
Degree Days  
Heating Degree Days 23 17  
Month to date heating degree days 192 129  
Since 1 July heating degree days 519 531  
Cooling Degree Days 0 0  
Month to date cooling degree days 0 0  
Year to date cooling degree days 1276 969  
Moisture  
Dew Point 21 °F    
Average Humidity 42    
Maximum Humidity 59    
Minimum Humidity 24    
Precipitation  
Precipitation 0.00 in 0.11 in 0.92 in (2006)
Month to date precipitation T 0.83  
Year to date precipitation 34.40 34.01  
Sea Level Pressure  
Sea Level Pressure 30.04 in    
Wind  
Wind Speed 9 mph (NW)    
Max Wind Speed 22 mph    
Max Gust Speed 28 mph    
Visibility 10 miles    
Events      
T = Trace of Precipitation, MM = Missing Value Source: NWS Daily Summary

Daily Weather History Graph

Daily Weather History Graph

Search for Another Location

Airport or City:

Trip Planner

Search our weather history database for the weather conditions in past years. The results will help you decide how hot, cold, wet, or windy it might be!

Date:

Astronomy

Nov. 08, 2012 Rise Set
Actual Time 6:47 AM EST 5:00 PM EST
Civil Twilight 6:19 AM EST 5:29 PM EST
Nautical Twilight 5:47 AM EST 6:01 PM EST
Astronomical Twilight 5:15 AM EST 6:33 PM EST
Moon 12:42 AM EST (11/8) 1:40 PM EST (11/8)
Length of Visible Light 11h 09m
Length of Day
10h 13m
Waning Crescent, 33% of the Moon is Illuminated
Nov 8
Waning Crescent
Nov 13
New
Nov 20
First Quarter
Nov 28
Full
Dec 6
Last Quarter

Hourly Weather History & Observations

Time (EST) Temp. Windchill Dew Point Humidity Pressure Visibility Wind Dir Wind Speed Gust Speed Precip Events Conditions
12:53 AM 37.0 °F 34.5 °F 21.9 °F 54% 29.98 in 10.0 mi NW 3.5 mph - N/A   Clear
1:53 AM 37.0 °F - 21.9 °F 54% 29.98 in 10.0 mi Calm Calm - N/A   Clear
2:53 AM 36.0 °F 31.1 °F 23.0 °F 59% 29.98 in 10.0 mi WNW 5.8 mph - N/A   Clear
3:53 AM 34.0 °F 27.2 °F 19.9 °F 56% 29.98 in 10.0 mi NW 8.1 mph - N/A   Clear
4:53 AM 34.0 °F 25.5 °F 18.0 °F 52% 29.99 in 10.0 mi WNW 11.5 mph - N/A   Clear
5:53 AM 34.0 °F 28.8 °F 17.1 °F 50% 29.99 in 10.0 mi NW 5.8 mph - N/A   Clear
6:53 AM 33.1 °F 26.9 °F 17.1 °F 52% 30.01 in 10.0 mi NW 6.9 mph - N/A   Clear
7:53 AM 36.0 °F 30.3 °F 19.0 °F 50% 30.02 in 10.0 mi WNW 6.9 mph - N/A   Clear
8:53 AM 37.0 °F 30.4 °F 19.0 °F 48% 30.05 in 10.0 mi WNW 9.2 mph - N/A   Clear
9:53 AM 42.1 °F 36.1 °F 19.9 °F 41% 30.05 in 10.0 mi NW 10.4 mph - N/A   Clear
10:53 AM 44.1 °F 37.1 °F 19.0 °F 37% 30.05 in 10.0 mi NW 15.0 mph 19.6 mph N/A   Clear
12:53 PM 48.9 °F - 18.0 °F 29% 30.01 in 10.0 mi NW 13.8 mph 19.6 mph N/A   Clear
1:53 PM 51.1 °F - 17.1 °F 26% 30.01 in 10.0 mi NW 15.0 mph - N/A   Clear
2:53 PM 51.1 °F - 16.0 °F 25% 30.00 in 10.0 mi NW 16.1 mph - N/A   Clear
3:53 PM 48.9 °F - 18.0 °F 29% 30.01 in 10.0 mi NNW 16.1 mph - N/A   Clear
4:53 PM 46.9 °F - 19.0 °F 33% 30.03 in 10.0 mi NW 11.5 mph 20.7 mph N/A   Clear
5:53 PM 44.1 °F 38.6 °F 19.9 °F 38% 30.06 in 10.0 mi NW 10.4 mph - N/A   Clear
6:53 PM 43.0 °F 37.2 °F 25.0 °F 49% 30.09 in 10.0 mi NW 10.4 mph - N/A   Clear
7:53 PM 44.1 °F 36.8 °F 27.0 °F 51% 30.09 in 10.0 mi NW 16.1 mph - N/A   Clear
8:53 PM 43.0 °F 34.8 °F 28.0 °F 56% 30.10 in 10.0 mi NW 18.4 mph - N/A   Clear
9:53 PM 42.1 °F 37.1 °F 28.9 °F 60% 30.12 in 10.0 mi NW 8.1 mph - N/A   Clear
10:53 PM 41.0 °F 37.1 °F 28.9 °F 62% 30.12 in 10.0 mi West 5.8 mph - N/A   Clear
11:53 PM 39.0 °F 35.7 °F 28.9 °F 67% 30.13 in 10.0 mi NNW 4.6 mph - N/A   Clear